Regional Weather Roundup
Issued by NWS

Home | Current Version | Previous Version | Graphics & Text | Print | Product List | Glossary On
Versions: 1 2 3 4 5 6 7 8 9 10 11 12 13 14 15 16 17 18 19 20 21 22 23 24 25 26 27 28 29 30 31 32 33 34 35 36 37 38 39 40 41 42 43 44 45 46 47 48 49 50
696
ASUS43 KFSD 112002
RWRSD

WEATHER ROUNDUP FOR SOUTH DAKOTA
NATIONAL WEATHER SERVICE SIOUX FALLS SD
200 PM CST THU FEB 11 2016

NOTE: "FAIR" INDICATES FEW OR NO CLOUDS BELOW 12,000 FEET WITH NO
SIGNIFICANT WEATHER AND/OR OBSTRUCTIONS TO VISIBILITY.


SDZ001>005-009-010-012>017-112100-
NORTHWEST AND NORTH CENTRAL SOUTH DAKOTA

CITY           SKY/WX    TMP DP  RH WIND       PRES   REMARKS
BUFFALO          N/A     39  32  76 NW30      29.95R
FAITH            N/A     32  27  81 E6        30.00S WCI  26
MOBRIDGE       LGT SNOW  27  23  85 SE7       30.06F FOG     WCI  19
$$

SDZ012>016-024>037-041>051-057-063-072>074-112100-
SOUTHWEST AND SOUTH CENTRAL SOUTH DAKOTA

CITY           SKY/WX    TMP DP  RH WIND       PRES   REMARKS
RAPID CTY ARPT SUNNY     57  27  31 NW38G48   29.99S
PIERRE         CLOUDY    29  24  82 E9        30.05F WCI  20
CUSTER         SUNNY     47  21  35 NW21G44   30.03S
ELLSWORTH AFB  MOSUNNY   56  29  35 NW29G47   29.98
PHILIP         MOSUNNY   46  31  55 N8        30.00S
PINE RIDGE     SUNNY     58  29  33 NW9       30.02F
WINNER         CLOUDY    37  29  72 S8        30.01F
$$

SDZ004>011-016>023-039-040-112100-
NORTHEAST SOUTH DAKOTA

CITY           SKY/WX    TMP DP  RH WIND       PRES   REMARKS
ABERDEEN       LGT SNOW  22  17  81 SE5       30.16F WCI  16
WATERTOWN      LGT SNOW  17  12  80 S7        30.12F WCI   8
BROOKINGS      LGT SNOW  16  11  80 S9        30.14F VSB 1   WCI   4
SISSETON         N/A     15  10  80 S7        30.18F WCI   5
$$

SDZ017-020-022-023-036>040-048>070-112100-
SOUTHEAST SOUTH DAKOTA

CITY           SKY/WX    TMP DP  RH WIND       PRES   REMARKS
SIOUX FALLS    LGT SNOW  17  12  80 S9        30.17F VSB 3/4 WCI   6
HURON          LGT SNOW  23  18  81 S8        30.13F WCI  14
CHAMBERLAIN    CLOUDY    28  24  85 E6        30.07S WCI  22
MITCHELL       LGT SNOW  22  18  85 SE9       30.14F FOG     WCI  12
YANKTON        CLOUDY    21  16  79 S12       30.16F WCI   9
$$

ABBREVIATIONS USED IN REMARKS
   TC - TEMPERATURE IN CELSIUS
  WCI - WIND CHILL INDEX
   HX - HEAT INDEX
  VSB - VISIBILITY





USA.gov is the U.S. government's official web portal to all federal, state and local government web resources and services.